Fort Wayne, IN

11:46 AM EDT on August 30, 2016 (GMT -0400)
Fort Wayne International

Weather History for KFWA - May, 2013

Change the Weather History Date:

Wednesday, May 22, 2013

  Actual Average Record
Temperature  
Mean Temperature 71 °F 62 °F  
Max Temperature 80 °F 74 °F 92 °F (1902)
Min Temperature 62 °F 51 °F 35 °F (1924)
Degree Days  
Heating Degree Days 0 5  
Month to date heating degree days 67 158  
Since 1 July heating degree days 5937 6040  
Cooling Degree Days 6 2  
Month to date cooling degree days 69 25  
Year to date cooling degree days 69 33  
Growing Degree Days 22 (Base 50)    
Moisture  
Dew Point 61 °F    
Average Humidity 74    
Maximum Humidity 93    
Minimum Humidity 54    
Precipitation  
Precipitation 0.05 in 0.16 in 1.45 in (1917)
Month to date precipitation 0.38 2.81  
Year to date precipitation 15.11 13.34  
Snow  
Snow 0.00 in 0.00 in T in (1963)
Month to date snowfall 0.0 0.0  
Since 1 July snowfall 38.5 33.5  
Snow Depth 0.00 in    
Sea Level Pressure  
Sea Level Pressure 29.74 in    
Wind  
Wind Speed 13 mph (SSW)    
Max Wind Speed 30 mph    
Max Gust Speed 35 mph    
Visibility 10 miles    
Events Rain    
T = Trace of Precipitation, MM = Missing Value Source: NWS Daily Summary

Daily Weather History Graph

Daily Weather History Graph

Search for Another Location

Airport or City:

Trip Planner

Search our weather history database for the weather conditions in past years. The results will help you decide how hot, cold, wet, or windy it might be!

Date:

Astronomy

May. 22, 2013 Rise Set
Actual Time 6:16 AM EDT 8:58 PM EDT
Civil Twilight 5:44 AM EDT 9:30 PM EDT
Nautical Twilight 5:04 AM EDT 10:10 PM EDT
Astronomical Twilight 4:19 AM EDT 10:56 PM EDT
Moon 6:19 PM EDT (5/22) 4:21 AM EDT (5/22)
Length of Visible Light 15h 45m
Length of Day
14h 41m
Waxing Gibbous, 91% of the Moon is Illuminated
May 22
Waxing Gibbous
May 25
Full
May 31
Last Quarter
Jun 8
New
Jun 16
First Quarter

Hourly Weather History & Observations

Time (EDT) Temp. Dew Point Humidity Pressure Visibility Wind Dir Wind Speed Gust Speed Precip Events Conditions
12:54 AM 70.0 °F 61.0 °F 73% 29.77 in 10.0 mi SSW 9.2 mph - N/A   Mostly Cloudy
1:54 AM 68.0 °F 61.0 °F 78% 29.76 in 10.0 mi SSW 6.9 mph - N/A   Overcast
2:54 AM 70.0 °F 61.0 °F 73% 29.75 in 10.0 mi SSW 10.4 mph - N/A   Overcast
3:54 AM 70.0 °F 62.1 °F 76% 29.73 in 10.0 mi South 4.6 mph - N/A   Overcast
4:38 AM 69.8 °F 62.6 °F 78% 29.75 in 10.0 mi SSW 9.2 mph - N/A   Overcast
4:54 AM 70.0 °F 63.0 °F 78% 29.73 in 10.0 mi SSW 11.5 mph - N/A   Overcast
5:16 AM 69.8 °F 62.6 °F 78% 29.74 in 10.0 mi SSW 15.0 mph - N/A   Overcast
5:54 AM 69.1 °F 62.1 °F 78% 29.73 in 10.0 mi SSW 11.5 mph - N/A   Overcast
6:06 AM 69.8 °F 62.6 °F 78% 29.76 in 10.0 mi SSW 15.0 mph - N/A   Overcast
6:19 AM 69.8 °F 62.6 °F 78% 29.76 in 10.0 mi SSW 12.7 mph - N/A   Overcast
6:54 AM 68.0 °F 62.1 °F 81% 29.74 in 10.0 mi SSW 10.4 mph - N/A   Overcast
7:17 AM 68.0 °F 62.6 °F 83% 29.77 in 10.0 mi SSW 8.1 mph - 0.00 in Rain Light Rain
7:28 AM 69.8 °F 60.8 °F 73% 29.77 in 10.0 mi SSW 10.4 mph - 0.00 in   Overcast
7:39 AM 68.0 °F 62.6 °F 83% 29.77 in 10.0 mi SSW 9.2 mph - 0.00 in Rain Light Rain
7:54 AM 68.0 °F 62.1 °F 81% 29.75 in 10.0 mi SSW 9.2 mph - 0.00 in   Overcast
8:42 AM 69.8 °F 62.6 °F 78% 29.75 in 10.0 mi SSW 11.5 mph - N/A   Overcast
8:54 AM 70.0 °F 63.0 °F 78% 29.73 in 10.0 mi SSW 12.7 mph - N/A   Mostly Cloudy
9:28 AM 71.6 °F 62.6 °F 73% 29.75 in 10.0 mi SSW 15.0 mph 21.9 mph N/A   Overcast
9:54 AM 70.0 °F 62.1 °F 76% 29.74 in 10.0 mi SSW 16.1 mph - N/A   Overcast
10:26 AM 71.6 °F 60.8 °F 69% 29.74 in 10.0 mi SSW 13.8 mph - N/A   Overcast
10:54 AM 70.0 °F 62.1 °F 76% 29.72 in 10.0 mi South 15.0 mph - 0.00 in Rain Light Rain
11:54 AM 73.0 °F 62.1 °F 68% 29.74 in 10.0 mi SSW 18.4 mph 26.5 mph 0.00 in   Mostly Cloudy
12:54 PM 77.0 °F 59.0 °F 54% 29.72 in 10.0 mi SSW 16.1 mph 29.9 mph N/A   Mostly Cloudy
1:54 PM 77.0 °F 59.0 °F 54% 29.71 in 10.0 mi SSW 19.6 mph 27.6 mph 0.00 in   Mostly Cloudy
2:54 PM 70.0 °F 63.0 °F 78% 29.71 in 8.0 mi SW 19.6 mph 29.9 mph 0.00 in Rain Light Rain
3:08 PM 66.2 °F 64.4 °F 94% 29.74 in 6.0 mi WSW 20.7 mph 32.2 mph 0.03 in Rain Rain
3:54 PM 73.0 °F 64.9 °F 76% 29.71 in 10.0 mi WSW 18.4 mph 25.3 mph 0.03 in   Scattered Clouds
4:54 PM 75.9 °F 59.0 °F 56% 29.69 in 10.0 mi SW 21.9 mph 33.4 mph N/A   Mostly Cloudy
5:54 PM 75.0 °F 57.9 °F 55% 29.67 in 10.0 mi SW 19.6 mph 27.6 mph N/A   Mostly Cloudy
6:08 PM 71.6 °F 59.0 °F 64% 29.70 in 10.0 mi West 19.6 mph 31.1 mph N/A   Mostly Cloudy
6:54 PM 72.0 °F 61.0 °F 68% 29.70 in 10.0 mi West 11.5 mph - N/A   Mostly Cloudy
7:54 PM 71.1 °F 57.9 °F 63% 29.73 in 10.0 mi WSW 15.0 mph - N/A   Mostly Cloudy
8:54 PM 69.1 °F 57.9 °F 68% 29.73 in 10.0 mi WSW 6.9 mph - N/A   Mostly Cloudy
9:54 PM 66.0 °F 57.9 °F 75% 29.74 in 10.0 mi SSW 5.8 mph - N/A   Mostly Cloudy
10:54 PM 64.0 °F 61.0 °F 90% 29.76 in 10.0 mi SW 9.2 mph - 0.02 in   Overcast
11:54 PM 62.1 °F 60.1 °F 93% 29.75 in 10.0 mi SSW 5.8 mph - N/A   Mostly Cloudy